[[{"header":{"parameterUnit":"m.s-1","parameterCategory":1,"la1":30.2991,"la2":30.254,"lo1":-89.0895,"lo2":-89.0444,"dx":0.0017,"dy":0.0017,"nx":28,"ny":28,"refTime":"2023-01-27T09:00:00:Z","depth":0,"parameterNumber":2,"parameterNumberName":"U-component_of_WINDS"},"data":[0,0,0,0,0,0,0,0,0,0,0,0,0,0,0,0,0,0,0,0,0,0,0,0,0,0,0,0,0,0,0,0,0,0,0,0,0,0,0,0,0,0,0,0,0,0,0,0,0,0,0,0,0,0,0,0,0,0,-3.1495,-3.1496,0,-3.1592,-3.1593,-3.1594,-3.1579,-3.1578,-3.1576,-3.1575,-3.1672,-3.1676,-3.168,0,0,0,0,0,0,0,0,0,0,0,0,0,-3.1297,-3.1301,-3.1495,-3.1496,-3.1498,-3.1592,-3.1593,-3.1594,-3.158,-3.1578,-3.1576,-3.1574,-3.1671,-3.1675,-3.168,0,0,0,0,0,0,0,0,0,0,0,0,0,-3.1387,-3.1302,-3.1495,-3.1502,-3.1503,-3.1591,-3.1593,-3.1595,-3.158,-3.1578,-3.1575,-3.1573,-3.1669,-3.1675,-3.1681,-3.1768,0,0,-3.17,-3.1703,0,0,0,0,0,0,0,0,-3.1382,-3.1395,-3.15,-3.1501,-3.1503,-3.1571,-3.1559,-3.1653,-3.1581,-3.1551,-3.1575,-3.1572,-3.164,-3.1649,-3.1672,-3.1773,-3.1777,-3.1701,-3.1704,-3.1707,-3.1709,0,0,0,0,0,0,0,-3.1376,-3.139,-3.1533,-3.1501,-3.1503,-3.15,-3.151,-3.1577,-3.1608,-3.1553,-3.1552,-3.1564,-3.1641,-3.1666,-3.1674,-3.1778,-3.17,-3.1706,-3.171,-3.1712,-3.1955,-3.1958,0,0,0,0,0,0,-3.1368,-3.1385,-3.153,-3.1536,-3.1436,-3.1505,-3.1516,-3.1552,-3.1607,-3.1613,-3.1566,-3.1563,-3.1657,-3.1667,-3.1678,-3.1783,-3.1707,-3.1713,-3.1716,-3.1952,-3.1956,-3.1959,0,0,0,0,0,0,-3.1364,-3.1381,-3.1526,-3.1461,-3.1479,-3.1511,-3.1551,-3.1555,-3.158,-3.1617,-3.1622,-3.1586,-3.1655,-3.1669,-3.1746,-3.1786,-3.1715,-3.1721,-3.1949,-3.1953,-3.1957,-3.1993,0,0,0,0,0,0,-3.1358,-3.138,-3.1413,-3.1462,-3.1482,-3.1593,-3.1554,-3.1559,-3.1591,-3.1588,-3.1637,-3.1643,-3.1654,-3.1737,-3.1752,-3.1793,-3.1726,-3.1946,-3.1951,-3.1956,-3.1989,-3.1998,-3.2006,0,0,0,0,0,-3.1351,-3.142,-3.1415,-3.1433,-3.1525,-3.1596,-3.1608,-3.1619,-3.1594,-3.1628,-3.1652,-3.1642,-3.1779,-3.1745,-3.1762,-3.1805,-3.1943,-3.195,-3.1956,-3.1985,-3.1996,-3.2006,0,0,0,0,0,0,-3.1374,-3.1426,-3.1422,-3.1508,-3.1548,-3.1593,-3.1636,-3.1632,-3.1679,-3.1674,-3.1686,-3.1698,-3.1775,-3.1798,-3.1759,-3.1892,-3.1858,-3.1868,-3.1874,-3.1886,-3.1894,-3.1886,-3.1731,0,0,0,0,0,-3.139,-3.1443,-3.1485,-3.1557,-3.1577,-3.1603,-3.1635,-3.164,-3.1682,-3.1699,-3.1728,-3.1768,-3.1821,-3.1855,-3.1905,-3.1993,-3.2003,-3.2031,-3.204,-3.2047,-3.2055,-3.2102,-3.2115,-3.1979,-3.1979,-3.1979,0,0,-3.1421,-3.1456,-3.1489,-3.1562,-3.1594,-3.1648,-3.1617,-3.1676,-3.1717,-3.1707,-3.1781,-3.1805,-3.1851,-3.1933,-3.1971,-3.1955,-3.2095,-3.2055,-3.206,-3.2064,-3.211,-3.2123,-3.2134,-3.1983,-3.1982,-3.1982,0,0,-3.1507,-3.1539,-3.1602,-3.1634,-3.1683,-3.17,-3.1715,-3.1762,-3.1777,-3.1852,-3.1846,-3.1894,-3.1984,-3.2017,-3.2045,-3.2144,-3.2136,-3.2161,-3.2206,-3.2252,-3.2263,-3.2272,-3.2306,-3.2318,-3.2169,-3.2169,-3.2169,0,-3.154,-3.1622,-3.1635,-3.1694,-3.1727,-3.1722,-3.1785,-3.1816,-3.1878,-3.19,-3.1882,-3.1995,-3.2025,-3.2115,-3.2139,-3.2163,-3.218,-3.2154,-3.226,-3.227,-3.2279,-3.2311,-3.2324,-3.2171,-3.2171,-3.2171,-3.2171,0,-3.1659,-3.1717,-3.1762,-3.1822,-3.186,-3.1921,-3.1943,-3.1979,-3.1983,-3.2001,-3.2078,-3.2115,-3.2172,-3.2194,-3.2198,-3.2285,-3.2273,-3.2257,-3.2222,-3.2294,-3.2325,-3.2338,-3.2175,-3.2174,-3.2173,-3.2173,0,0,-3.176,-3.1828,-3.1844,-3.1871,-3.1925,-3.1969,-3.203,-3.2087,-3.2117,-3.2161,-3.2212,-3.2289,-3.2275,-3.2307,-3.2315,-3.2356,-3.243,-3.2335,-3.2336,-3.235,-3.2527,-3.2537,-3.2551,-3.2426,-3.2429,-3.2431,-3.2523,0,-3.1849,-3.1957,-3.1971,-3.2067,-3.2119,-3.2116,-3.2169,-3.2208,-3.2228,-3.2275,-3.2297,-3.235,-3.2329,-3.2348,-3.2388,-3.2412,-3.2466,-3.2406,-3.2472,-3.2475,-3.2459,-3.2568,-3.2579,-3.2664,-3.2535,-3.2537,-3.2538,0,-3.1967,-3.2014,-3.2115,-3.2162,-3.2184,-3.2232,-3.2285,-3.233,-3.2374,-3.2385,-3.2422,-3.2425,-3.2488,-3.2452,-3.2538,-3.2498,-3.2526,-3.2542,-3.2546,-3.2551,-3.2509,-3.2574,-3.2691,-3.2703,-3.2558,-3.2556,-3.2555,0,-3.2029,-3.2118,-3.2189,-3.2213,-3.2269,-3.2303,-3.2328,-3.2369,-3.2402,-3.2449,-3.247,-3.2524,-3.2552,-3.2593,-3.261,-3.2583,-3.2695,-3.2661,-3.2706,-3.2705,-3.2728,-3.2725,-3.2849,-3.2749,-3.2749,-3.2749,-3.2748,0,-3.2126,-3.2187,-3.2218,-3.2261,-3.233,-3.2346,-3.2414,-3.2437,-3.2474,-3.2522,-3.2524,-3.2569,-3.2589,-3.2637,-3.2651,-3.272,-3.2733,-3.2743,-3.2746,-3.2742,-3.2741,-3.2759,-3.2753,-3.2752,-3.2751,-3.2751,-3.275,0,-3.2205,-3.2228,-3.2306,-3.2353,-3.2366,-3.2415,-3.2455,-3.2497,-3.2517,-3.2578,-3.2594,-3.2625,-3.2682,-3.2703,-3.2772,-3.2781,-3.2861,-3.2859,-3.2846,-3.2846,-3.2889,-3.2884,-3.3027,-3.3046,-3.2935,-3.2936,-3.2937,0,-3.2264,-3.2312,-3.2364,-3.2397,-3.2423,-3.2475,-3.2509,-3.2527,-3.2562,-3.2616,-3.2652,-3.2708,-3.2755,-3.2846,-3.2874,-3.2927,-3.2926,-3.2973,-3.2934,-3.2929,-3.2925,-3.2921,-3.2925,-3.2979,-3.298,-3.2981,-3.2982,0,-3.2367,-3.2376,-3.2425,-3.2479,-3.2519,-3.2562,-3.2603,-3.263,-3.2654,-3.2693,-3.2752,-3.2788,-3.2859,-3.2915,-3.297,-3.2995,-3.2992,-3.2994,-3.3007,-3.3003,-3.2992,-3.2997,-3.2863,-3.299,-3.299,-3.2989,-3.2989,-3.2988,-3.2437,-3.2479,-3.2522,-3.2577,-3.261,-3.2649,-3.2691,-3.2716,-3.2765,-3.2824,-3.2832,-3.2895,-3.2937,-3.3011,-3.3039,-3.3087,-3.3075,-3.3094,-3.3098,-3.3102,-3.3104,-3.2986,-3.3098,-3.3097,-3.3097,-3.3097,-3.3097,0,-3.2539,-3.2566,-3.2617,-3.2675,-3.2718,-3.2713,-3.2758,-3.2794,-3.2849,-3.289,-3.2935,-3.3002,-3.3057,-3.309,-3.3145,-3.3178,-3.3178,-3.3191,-3.3188,-3.3194,-3.3113,-3.3096,-3.319,-3.319,-3.319,-3.319,-3.319,-3.319,-3.2596,-3.2666,-3.268,-3.2767,-3.2794,-3.2855,-3.2882,-3.2918,-3.295,-3.3024,-3.307,-3.3092,-3.3129,-3.3187,-3.3236,-3.3245,-3.3264,-3.3279,-3.3286,-3.3209,-3.32,-3.319,-3.3174,-3.3283,-3.3283,-3.3362,-3.3363,-3.3363]},{"header":{"parameterUnit":"m.s-1","parameterCategory":1,"la1":30.2991,"la2":30.254,"lo1":-89.0895,"lo2":-89.0444,"dx":0.0017,"dy":0.0017,"nx":28,"ny":28,"refTime":"2023-01-27T09:00:00:Z","depth":0,"parameterNumber":3,"parameterNumberName":"V-component_of_WINDS"},"data":[0,0,0,0,0,0,0,0,0,0,0,0,0,0,0,0,0,0,0,0,0,0,0,0,0,0,0,0,0,0,0,0,0,0,0,0,0,0,0,0,0,0,0,0,0,0,0,0,0,0,0,0,0,0,0,0,0,0,3.5289,3.5289,0,3.5345,3.5345,3.5346,3.5291,3.5289,3.5287,3.5285,3.5335,3.5339,3.5342,0,0,0,0,0,0,0,0,0,0,0,0,0,3.5127,3.513,3.5289,3.5289,3.529,3.5345,3.5346,3.5346,3.5291,3.5289,3.5286,3.5284,3.5334,3.5338,3.5342,0,0,0,0,0,0,0,0,0,0,0,0,0,3.5191,3.5131,3.5288,3.5269,3.5268,3.5345,3.5346,3.5346,3.5292,3.5289,3.5286,3.5283,3.5333,3.5338,3.5343,3.5438,0,0,3.5358,3.536,0,0,0,0,0,0,0,0,3.5188,3.5197,3.5272,3.5271,3.527,3.5308,3.5307,3.5377,3.5293,3.5283,3.5285,3.5281,3.5328,3.5334,3.5351,3.5441,3.5443,3.5359,3.5362,3.5364,3.5365,0,0,0,0,0,0,0,3.5183,3.5194,3.5311,3.5273,3.5272,3.5256,3.5261,3.532,3.5323,3.5283,3.528,3.5287,3.5327,3.5346,3.5352,3.5444,3.5358,3.5363,3.5366,3.5368,3.5613,3.5617,0,0,0,0,0,0,3.5182,3.5191,3.5309,3.5312,3.522,3.5261,3.5268,3.5299,3.5322,3.5323,3.529,3.5285,3.5339,3.5346,3.5353,3.5465,3.5364,3.5368,3.5371,3.561,3.5614,3.5618,0,0,0,0,0,0,3.5179,3.5193,3.5306,3.5251,3.5264,3.5268,3.5303,3.5302,3.5321,3.5327,3.5327,3.531,3.5337,3.5346,3.5418,3.5466,3.5371,3.5375,3.5606,3.5611,3.5616,3.5691,0,0,0,0,0,0,3.5174,3.5192,3.523,3.5252,3.5267,3.5372,3.5306,3.5305,3.533,3.5324,3.5345,3.5346,3.5335,3.5411,3.5423,3.5471,3.5379,3.5601,3.5608,3.5614,3.5684,3.5698,3.571,0,0,0,0,0,3.5169,3.5248,3.5232,3.5247,3.5315,3.5375,3.5384,3.5372,3.5335,3.5371,3.5376,3.5345,3.546,3.5418,3.5432,3.5483,3.5598,3.5606,3.5614,3.5678,3.5695,3.571,0,0,0,0,0,0,3.5228,3.525,3.5233,3.5322,3.5348,3.5366,3.5412,3.5391,3.5425,3.5417,3.5399,3.5405,3.548,3.5489,3.5442,3.5576,3.5522,3.5533,3.5567,3.5583,3.5596,3.5591,3.5383,0,0,0,0,0,3.5252,3.5302,3.5317,3.5394,3.5408,3.5408,3.5434,3.5423,3.5448,3.5457,3.5467,3.549,3.5531,3.5558,3.5596,3.5686,3.5689,3.5728,3.5741,3.5751,3.576,3.5806,3.5823,3.5644,3.5644,3.5643,0,0,3.5301,3.5319,3.5351,3.5407,3.5425,3.5474,3.5417,3.5472,3.5507,3.5465,3.5533,3.5541,3.5565,3.5646,3.5682,3.5656,3.5811,3.5761,3.577,3.5773,3.5816,3.5833,3.5848,3.5649,3.5648,3.5647,0,0,3.5415,3.5435,3.5501,3.5521,3.5551,3.555,3.5566,3.5589,3.5593,3.5662,3.5631,3.5672,3.5743,3.5762,3.578,3.5903,3.5875,3.5916,3.5982,3.6028,3.6042,3.6055,3.6096,3.6111,3.5925,3.5925,3.5925,0,3.5471,3.5546,3.5536,3.5594,3.5618,3.5585,3.565,3.5669,3.5709,3.5725,3.5696,3.5785,3.5799,3.5883,3.5913,3.593,3.5946,3.5912,3.6042,3.6054,3.6065,3.6104,3.612,3.593,3.5929,3.5929,3.5928,0,3.5613,3.5666,3.5715,3.5756,3.5787,3.5847,3.5844,3.5876,3.5863,3.5865,3.5935,3.5951,3.5992,3.6011,3.5998,3.6093,3.6076,3.6045,3.599,3.6087,3.6123,3.6139,3.5936,3.5935,3.5933,3.5932,0,0,3.5763,3.5801,3.5818,3.5837,3.5868,3.5906,3.5965,3.6007,3.6033,3.6062,3.6109,3.6171,3.6143,3.6164,3.6153,3.6194,3.6287,3.6157,3.6157,3.6178,3.639,3.6412,3.6429,3.627,3.6273,3.6275,3.6387,0,3.5876,3.5981,3.5974,3.6071,3.6118,3.6088,3.6139,3.6162,3.6166,3.6205,3.6208,3.6252,3.6212,3.6224,3.6263,3.6267,3.6329,3.626,3.631,3.6312,3.6303,3.6449,3.6472,3.6577,3.6402,3.6404,3.6406,0,3.6022,3.6058,3.6161,3.6184,3.6204,3.625,3.6287,3.6326,3.6351,3.6351,3.6376,3.6358,3.6415,3.6362,3.6438,3.6391,3.6412,3.6417,3.6421,3.6423,3.6363,3.6452,3.661,3.6625,3.6429,3.6427,3.6425,0,3.6119,3.6193,3.6264,3.628,3.631,3.6343,3.6357,3.6379,3.6405,3.6437,3.6453,3.6491,3.6511,3.654,3.6532,3.6495,3.661,3.6557,3.6609,3.6609,3.6632,3.663,3.6793,3.6651,3.665,3.665,3.665,0,3.6244,3.6307,3.6308,3.6351,3.642,3.6411,3.6479,3.6488,3.6509,3.6551,3.6528,3.6568,3.6556,3.6595,3.659,3.6653,3.6662,3.6662,3.6659,3.6663,3.6663,3.6674,3.6665,3.6654,3.6653,3.6652,3.6652,0,3.6362,3.6366,3.644,3.6464,3.6471,3.6521,3.6539,3.6578,3.6582,3.6636,3.6648,3.6652,3.6696,3.6693,3.6742,3.6738,3.6816,3.6806,3.6808,3.6805,3.6856,3.6851,3.703,3.7052,3.6898,3.6899,3.69,0,3.6441,3.6489,3.6518,3.6547,3.6563,3.6608,3.6635,3.6628,3.6656,3.6689,3.6724,3.6768,3.6801,3.6874,3.6879,3.6917,3.6906,3.6966,3.6911,3.6913,3.6904,3.69,3.6904,3.6976,3.6978,3.6979,3.698,0,3.6579,3.6579,3.662,3.6661,3.6695,3.6726,3.6755,3.6779,3.6775,3.6807,3.6854,3.6881,3.6933,3.6975,3.7011,3.7022,3.7,3.6998,3.7012,3.7014,3.7013,3.7012,3.6835,3.6993,3.6992,3.6991,3.699,3.699,3.6678,3.6719,3.6747,3.6792,3.6814,3.6842,3.688,3.6889,3.6929,3.6972,3.6965,3.7017,3.704,3.7087,3.7102,3.714,3.7118,3.7139,3.7143,3.7148,3.7153,3.701,3.7147,3.7147,3.7146,3.7146,3.7146,0,3.6813,3.683,3.6873,3.6915,3.6951,3.6931,3.6962,3.6992,3.7039,3.7063,3.7098,3.7151,3.7192,3.7202,3.7241,3.727,3.7261,3.728,3.7276,3.7279,3.7171,3.7155,3.7287,3.7287,3.7287,3.7287,3.7287,3.7287,3.6887,3.6956,3.6959,3.7037,3.7052,3.7104,3.7124,3.7148,3.7168,3.7229,3.7264,3.7271,3.729,3.733,3.7366,3.7367,3.7382,3.7405,3.7402,3.7301,3.7287,3.7273,3.7257,3.7409,3.7409,3.7506,3.7507,3.7508]}]]